Lexington Weather

Lexington, Massachusetts, USA

70°F
8/17/2022 6:42pm 
  • Lexington Conditions: Overcast
  • Temperature: 69.8°F / 21.0°CColder 0.2°F than last hour.
  • Dew Point: 58.3°FDecreased 0.2°Fsince last hour.
  • Relative Humidity: 67
  • Wind: Calm, 10-min avg: Calm, gust: 3 mph
  • Barometer: 29.85 in Steady
  • Visibility: 10 miles
  • Rain Today: 0.00 in
  •   

Regional Weather Roundup
for Boston, MA

        
000
ASUS41 KBOX 130310
RWRBOX

REGIONAL WEATHER ROUNDUP
NATIONAL WEATHER SERVICE BOSTON/NORTON MA
1100 PM EDT FRI AUG 12 2022

NOTE:  "FAIR" INDICATES FEW OR NO CLOUDS BELOW 12,000 FEET WITH NO 
SIGNIFICANT WEATHER AND/OR OBSTRUCTIONS TO VISIBILITY.

MAZALL-130400-
EASTERN MASSACHUSETTS
  
CITY           SKY/WX    TMP DP  RH WIND       PRES   REMARKS
BOSTON         MOCLDY    69  49  48 N8        30.05S                  
BEVERLY        MOCLDY    63  50  62 N6        30.04S                  
LAWRENCE       MOCLDY    67  50  54 N6        30.07S                  
BEDFORD        MOCLDY    62  52  69 CALM      30.04S                  
BLUE HILL      NOT AVBL                                               
NORWOOD        MOCLDY    62  55  77 CALM      30.04F                  
MARSHFIELD     MOCLDY    66  55  68 CALM      30.03S                  
PLYMOUTH       MOCLDY    66  59  78 N3        30.04S                  
TAUNTON          N/A    N/A N/A N/A MISG      30.03S                  
NEW BEDFORD    CLOUDY    67  62  84 N5        30.02S                  
$$

MAZALL-130400-
CAPE COD AND THE ISLANDS
  
CITY           SKY/WX    TMP DP  RH WIND       PRES   REMARKS
FALMOUTH       MOCLDY    68  64  88 N6        30.01S                  
HYANNIS        CLOUDY    67  63  87 N6        30.01S                  
CHATHAM        CLOUDY    67  64  90 NW5       30.02S                  
NANTUCKET      CLOUDY    69  67  93 N5        30.01F                  
MARTHAS VNYRD  CLOUDY    66  64  93 N6        30.01F                  
$$
 
MAZALL-130400-
CENTRAL AND WESTERN MASSACHUSETTS
  
CITY           SKY/WX    TMP DP  RH WIND       PRES   REMARKS
WORCESTER      MOCLDY    64  49  57 N7        30.07F                  
FITCHBURG      MOCLDY    64  47  53 NW7       30.07S                  
ORANGE         CLEAR     58  51  78 CALM      30.09R                  
SPRINGFIELD    PTCLDY    56  51  85 NE5       30.04S                  
WESTFIELD      CLEAR     60  48  64 N3        30.06S                  
NORTH ADAMS    PTCLDY    56  52  86 CALM      30.11R                  
PITTSFIELD     MOCLDY    56  47  71 CALM      30.09S                  
$$
 
RIZALL-130400-
RHODE ISLAND
  
CITY           SKY/WX    TMP DP  RH WIND       PRES   REMARKS
PROVIDENCE     CLOUDY    68  61  78 N6        30.04S                  
NEWPORT        CLOUDY    69  62  78 NE7       30.03R                  
BLOCK ISLAND   CLOUDY    68  65  90 E3        30.03S                  
SMITHFIELD     CLOUDY    65  51  60 N5        30.06S                  
WESTERLY       CLOUDY    66  55  67 N3        30.03R                  
$$
 
CTZALL-130400-
CONNECTICUT
  
CITY           SKY/WX    TMP DP  RH WIND       PRES   REMARKS
BRADLEY INTL   PTCLDY    66  48  52 N6        30.05S                  
HARTFORD       CLEAR     71  46  40 N6        30.04S                  
BRIDGEPORT     CLEAR     71  45  39 N9        30.04R                  
DANBURY        CLEAR     71  43  36 N7        30.08S                  
GROTON         CLOUDY    71  50  47 N10       30.02R                  
NEW HAVEN      PTCLDY    69  48  47 N6        30.04R                  
CHESTER        FAIR      68  46  45 N7        30.04S                  
MERIDEN        CLEAR     64  51  62 CALM      30.04S                  
WILLIMANTIC    MOCLDY    65  50  58 CALM      30.07R                  
OXFORD         CLEAR     65  46  50 N8        30.07F                  
$$

MEZ002-015-021-024-NHZ003-005-008-011-012-014-VTZ005-008-130400-
NORTHERN NEW ENGLAND
  
CITY           SKY/WX    TMP DP  RH WIND       PRES   REMARKS
PORTLAND ME    MOCLDY    64  51  62 N7        30.06S                  
BANGOR ME      MOCLDY    61  53  75 CALM      30.05S                  
CONCORD NH     PTCLDY    61  50  67 NW6       30.07S                  
MANCHESTER NH  MOCLDY    67  49  52 NW10      30.06R                  
NASHUA NH      MOCLDY    65  51  60 NW7       30.07S                  
PORTSMOUTH NH  MOCLDY    66  48  51 N7        30.05R                  
JAFFREY NH     PTCLDY    58  52  80 CALM      30.10S                  
KEENE NH       CLEAR     56  53  90 CALM        N/A                   
BURLINGTON VT  CLOUDY    65  53  65 CALM      30.12S                  
MT. WASHINGTON MOCLDY    37  37  97 N9          N/A  WCI  31          
$$

NYZ052-076-130400-
EASTERN NEW YORK
  
CITY           SKY/WX    TMP DP  RH WIND       PRES   REMARKS
ALBANY         MOCLDY    65  50  58 NW6       30.11S                  
NEW YORK CITY  PTCLDY    75  42  30 N10       30.04S                  
$$
 
ANZALL-130400-
MARINE OBSERVATIONS
  
STATION/POSITION TIME  TEMP    WIND        PRES    VSBY  WAVE
                       AIR SEA DIR/SP/G                  HT/PER
                 (UTC) (F)     (DEG/KT/KT) (MB)    (MI)  (FT/S)
BOSTON BUOY      NOT AVBL
BUZZARDS BAY     NOT AVBL
NANTUCKET SOUND  NOT AVBL
MASS BAY-STELLWA NOT AVBL
ISLE OF SHOALS   NOT AVBL
S OF BLOCK IS    NOT AVBL
$$

......................KEY.........................
  SKY/WX - SKY CONDITION/PRESENT WEATHER
  TMP    - TEMPERATURE IN FAHRENHEIT
  DWPT   - DEWPOINT IN FAHRENHEIT
  RH     - RELATIVE HUMIDITY IN PERCENT
  WIND   - DIRECTION AND SPEED IN MPH
  PRES   - MEAN SEA LEVEL PRESSURE IN INCHES OF HG
  WCI    - WIND CHILL INDEX
  VSB    - VISIBILITY IN MILES
  HX     - HEAT INDEX
  TC     - TEMPERATURE IN CELSIUS
  VRB    - VARIABLE WIND DIRECTION
  N/A    - NOT AVAILABLE
  
      

Other recent Regional Weather Roundups

Wed Aug 17, 6:10pm

Wed Aug 17, 5:10pm

Wed Aug 17, 4:10pm

Wed Aug 17, 3:10pm

Wed Aug 17, 2:10pm

Wed Aug 17, 1:10pm

Wed Aug 17, 12:10pm

Wed Aug 17, 11:10am

Wed Aug 17, 10:10am

Wed Aug 17, 9:10am

Wed Aug 17, 8:10am

Wed Aug 17, 7:10am

Wed Aug 17, 6:10am

Wed Aug 17, 5:10am

Wed Aug 17, 4:10am

Wed Aug 17, 3:10am

Wed Aug 17, 2:10am

Wed Aug 17, 1:10am

Wed Aug 17, 12:10am

Tue Aug 16, 11:10pm

Tue Aug 16, 10:10pm

Tue Aug 16, 9:10pm

Tue Aug 16, 8:10pm

Tue Aug 16, 7:10pm

Tue Aug 16, 6:10pm

Tue Aug 16, 5:10pm

Tue Aug 16, 4:10pm

Tue Aug 16, 3:10pm

Tue Aug 16, 2:10pm

Tue Aug 16, 1:10pm

Tue Aug 16, 12:10pm

Tue Aug 16, 11:10am

Tue Aug 16, 10:10am

Tue Aug 16, 9:10am

Tue Aug 16, 8:10am

Tue Aug 16, 7:10am

Tue Aug 16, 6:10am

Tue Aug 16, 5:10am

Tue Aug 16, 4:10am

Tue Aug 16, 3:10am

Tue Aug 16, 2:10am

Tue Aug 16, 1:10am

Tue Aug 16, 12:10am

Mon Aug 15, 11:10pm

Mon Aug 15, 10:10pm

Mon Aug 15, 9:10pm

Mon Aug 15, 8:10pm

Mon Aug 15, 7:10pm

Mon Aug 15, 6:10pm

Mon Aug 15, 5:10pm

Mon Aug 15, 4:10pm

Mon Aug 15, 3:10pm

Mon Aug 15, 2:10pm

Mon Aug 15, 1:10pm

Mon Aug 15, 12:10pm

Mon Aug 15, 11:10am

Mon Aug 15, 10:10am

Mon Aug 15, 9:10am

Mon Aug 15, 8:10am

Mon Aug 15, 7:10am

Mon Aug 15, 6:10am

Mon Aug 15, 5:10am

Mon Aug 15, 4:10am

Mon Aug 15, 3:10am

Mon Aug 15, 2:10am

Mon Aug 15, 1:10am

Mon Aug 15, 12:10am

Sun Aug 14, 11:10pm

Sun Aug 14, 10:10pm

Sun Aug 14, 9:10pm

Sun Aug 14, 8:10pm

Sun Aug 14, 7:10pm

Sun Aug 14, 6:10pm

Sun Aug 14, 5:10pm

Sun Aug 14, 4:10pm

Sun Aug 14, 3:10pm

Sun Aug 14, 2:10pm

Sun Aug 14, 1:10pm

Sun Aug 14, 12:10pm

Sun Aug 14, 11:10am

Sun Aug 14, 10:10am

Sun Aug 14, 9:10am

Sun Aug 14, 8:10am

Sun Aug 14, 7:10am

Sun Aug 14, 6:10am

Sun Aug 14, 5:10am

Sun Aug 14, 4:10am

Sun Aug 14, 3:10am

Sun Aug 14, 2:10am

Sun Aug 14, 1:10am

Sun Aug 14, 12:10am

Sat Aug 13, 11:10pm

Sat Aug 13, 10:10pm

Sat Aug 13, 9:10pm

Sat Aug 13, 8:10pm

Sat Aug 13, 7:10pm

Sat Aug 13, 6:10pm

Sat Aug 13, 5:10pm

Sat Aug 13, 4:10pm

Sat Aug 13, 3:10pm

Sat Aug 13, 2:10pm

Sat Aug 13, 1:10pm

Sat Aug 13, 12:10pm

Sat Aug 13, 11:10am

Sat Aug 13, 10:10am

Sat Aug 13, 9:10am

Sat Aug 13, 8:10am

Sat Aug 13, 7:10am

Sat Aug 13, 6:10am

Sat Aug 13, 5:10am

Sat Aug 13, 4:10am

Sat Aug 13, 3:10am

Sat Aug 13, 2:10am

Sat Aug 13, 1:10am

Sat Aug 13, 12:10am

Fri Aug 12, 10:10pm

Fri Aug 12, 9:10pm

Fri Aug 12, 8:10pm

Fri Aug 12, 7:10pm

Fri Aug 12, 6:10pm

Fri Aug 12, 5:10pm

Fri Aug 12, 4:10pm

Fri Aug 12, 3:10pm

Fri Aug 12, 2:10pm

Fri Aug 12, 1:10pm

Fri Aug 12, 12:10pm

Fri Aug 12, 11:10am

Fri Aug 12, 10:10am

Fri Aug 12, 9:10am

Fri Aug 12, 8:10am

Fri Aug 12, 7:10am

Fri Aug 12, 6:10am

Fri Aug 12, 5:10am

Fri Aug 12, 4:10am

Fri Aug 12, 3:10am

Fri Aug 12, 2:10am

Fri Aug 12, 1:10am

Fri Aug 12, 12:10am

Thu Aug 11, 11:10pm

Thu Aug 11, 10:10pm

Thu Aug 11, 9:10pm

Thu Aug 11, 8:10pm

Thu Aug 11, 7:10pm

Thu Aug 11, 6:10pm

Thu Aug 11, 5:10pm

Thu Aug 11, 4:10pm

Thu Aug 11, 3:10pm

Thu Aug 11, 2:10pm

Thu Aug 11, 1:10pm

Thu Aug 11, 12:10pm

Thu Aug 11, 11:10am

Thu Aug 11, 10:10am

Thu Aug 11, 9:10am

Thu Aug 11, 8:10am

Thu Aug 11, 7:10am

Thu Aug 11, 6:10am

Thu Aug 11, 5:10am

Thu Aug 11, 4:10am

Thu Aug 11, 3:10am

Thu Aug 11, 2:10am

Thu Aug 11, 1:10am

Thu Aug 11, 12:10am

Wed Aug 10, 11:10pm

Wed Aug 10, 10:10pm

Wed Aug 10, 9:10pm

Wed Aug 10, 8:10pm

Wed Aug 10, 7:10pm

Meta data:

ID: 59e507bc-4027-4071-a8a3-f2c13d6db87c
Link: https://api.weather.gov/products/59e507bc-4027-4071-a8a3-f2c13d6db87c